• Join FlightAware (Why Join?)
  • Login
  • US Flag GB Flag 
18:48 EDT


 

Airport Tracker/Info


-or-


 

Live Flight TrackerFlight Track Log ✈ N1926A ✈ 01-May-2013 ✈ 41A - KJKA

Flight Track Log - Related Links

Times and Time Zones

All times are in EDT time to prevent confusion due to time zone crossing. See the N1926A flight status page for this flight to view local times or setup timezone preferences in your user account.

Time Position Orientation Groundspeed Altitude Reporting Facility
EDT Latitude Longitude Course Direction KTS MPH feet Rate Location/Type
11:13 32.3944 -85.8886 212° Southwest 190 219 7,700  Level Atlanta Center
11:14 32.3542 -85.9272 219° Southwest 176 203 9,700 1,800 Climbing Atlanta Center
11:15 32.3097 -85.9631 214° Southwest 186 214 11,400 1,140 Climbing Atlanta Center
11:16 32.2611 -86.0039 215° Southwest 203 234 12,000 300 Climbing Atlanta Center
11:17 32.2027 -86.1230 212° Southwest  Level FlightAware Approximate
11:17 32.2061 -86.0517 216° Southwest 225 259 12,000  Level Atlanta Center
11:18 32.1508 -86.1619 212° Southwest  Level FlightAware Approximate
11:18 32.1489 -86.0994 215° Southwest 250 288 13,100  Level Atlanta Center
11:19 32.0989 -86.2008 212° Southwest  Level FlightAware Approximate
11:19 32.1067 -86.1403 219° Southwest 245 282 14,000  Level Atlanta Center
11:20 32.0514 -86.1856 215° Southwest 238 274 14,000  Level Atlanta Center
11:21 31.9942 -86.2356 217° Southwest 248 285 14,000  Level Atlanta Center
11:22 31.9392 -86.2856 218° Southwest 253 291 14,000  Level Atlanta Center
11:23 31.8797 -86.3353 215° Southwest 258 297 14,000  Level Atlanta Center
11:24 31.8225 -86.3828 215° Southwest 253 291 14,000  Level Atlanta Center
11:27 31.6981 -86.4842 215° Southwest 263 303 14,000  Level Jacksonville Center
11:28 31.6444 -86.5336 218° Southwest 258 297 14,000  Level Jacksonville Center
11:29 31.5889 -86.5800 215° Southwest 253 291 14,000  Level Jacksonville Center
11:30 31.5353 -86.6267 217° Southwest 253 291 14,000  Level Jacksonville Center
11:31 31.4817 -86.6733 217° Southwest 253 291 14,000 -60 Level Jacksonville Center
11:32 31.4281 -86.7222 218° Southwest 253 291 13,900 -240 Descending Jacksonville Center
11:33 31.3744 -86.7686 216° Southwest 253 291 13,600 -600 Descending Jacksonville Center
11:34 31.3144 -86.8172 215° Southwest 258 297 12,800 -720 Descending Jacksonville Center
11:35 31.2544 -86.8681 216° Southwest 258 297 12,200 -600 Descending Jacksonville Center
11:36 31.1944 -86.9189 216° Southwest 258 297 11,600 -600 Descending Jacksonville Center
11:36 31.1344 -86.9697 216° Southwest 264 304 11,100 -660 Descending Jacksonville Center
11:38 31.0742 -87.0231 217° Southwest 263 303 10,300 -840 Descending Jacksonville Center
11:39 31.0183 -87.0714 217° Southwest 258 297 9,400 -960 Descending Jacksonville Center
11:40 30.9625 -87.1197 217° Southwest 258 297 8,400 -840 Descending Jacksonville Center
11:41 30.9025 -87.1706 216° Southwest 212 244 7,700 -1,080 Descending Jacksonville Center
11:42 30.8575 -87.2047 213° Southwest 242 278 6,300 -840 Descending Jacksonville Center
11:43 30.7950 -87.2575 216° Southwest 241 277 6,000 -960 Descending Jacksonville Center
11:44 30.7392 -87.3008 214° Southwest 241 277 4,400 -1,020 Descending Jacksonville Center
11:45 30.6875 -87.3492 219° Southwest 235 270 4,000 -240 Descending Jacksonville Center
11:46 30.6381 -87.3878 214° Southwest 190 219 4,000  Level Jacksonville Center
11:47 30.5867 -87.4289 215° Southwest 215 247 4,000  Level Jacksonville Center
11:48 30.5436 -87.4606 212° Southwest 214 246 4,000  Level Jacksonville Center
11:49 30.4964 -87.5017 217° Southwest 215 247 4,000  Level Jacksonville Center
11:50 30.4531 -87.5431 219° Southwest 188 216 4,000 -720 Level Jacksonville Center
11:51 30.4081 -87.5769 213° Southwest 182 209 2,500 -1,260 Descending Jacksonville Center
11:52 30.3669 -87.6108 215° Southwest 193 222 1,500 -540 Descending Jacksonville Center
11:53 30.3322 -87.6453 221° Southwest 163 188 1,500  Level Jacksonville Center
11:54 30.3319 -87.7103 270° West 190 219 1,500  Level Jacksonville Center
11:55 30.3361 -87.7633 275° West 190 219 1,500  Level Jacksonville Center
11:56 30.3381 -87.8261 272° West 190 219 1,500  Level Jacksonville Center
11:57 30.3097 -87.8558 222° Southwest 138 159 1,500  Level Jacksonville Center
11:58 30.2967 -87.8144 110° East 136 157 1,500 -60 Level Jacksonville Center
11:59 30.2942 -87.7756 94° East 108 124 1,400 -120 Descending Jacksonville Center